[[{"header":{"parameterUnit":"m.s-1","parameterCategory":2,"la1":30.2991,"la2":30.254,"lo1":-89.0895,"lo2":-89.0444,"dy":0.0017,"dx":0.0017,"nx":28,"ny":28,"refTime":"2025-12-10T03:00:00:Z","depth":"0","parameterNumber":2,"parameterNumberName":"U-component_of_CURRENTS"},"data":[0,0,0,0,0,0,0,0,0,0,0,0,0,0,0,0,0,0,0,0,0,0,0,0,0,0,0,0,0,0,0,0,0,0,0,0,0,0,0,0,0,0,0,0,0,0,0,0,0,0,0,0,0,0,0,0,0,0,0.4492,0.449,0,0.4288,0.4286,0.4283,0.4186,0.4186,0.4186,0.4187,0.4215,0.4216,0.4217,0,0,0,0,0,0,0,0,0,0,0,0,0,0.4734,0.473,0.4492,0.449,0.4487,0.4289,0.4286,0.4283,0.4186,0.4186,0.4186,0.4187,0.4215,0.4216,0.4217,0,0,0,0,0,0,0,0,0,0,0,0,0,0.4588,0.4729,0.4492,0.4416,0.4407,0.4289,0.4286,0.4282,0.4186,0.4186,0.4186,0.4187,0.4215,0.4216,0.4217,0.4215,0,0,0.4219,0.422,0,0,0,0,0,0,0,0,0.4597,0.4579,0.443,0.4421,0.4411,0.4264,0.4381,0.4272,0.4186,0.4268,0.4187,0.4187,0.4254,0.4252,0.4207,0.4216,0.4217,0.4219,0.422,0.422,0.422,0,0,0,0,0,0,0,0.4607,0.4587,0.441,0.4427,0.4416,0.4371,0.4351,0.4359,0.4265,0.4261,0.4254,0.4234,0.4251,0.4206,0.4208,0.4218,0.4219,0.422,0.422,0.4221,0.4441,0.4446,0,0,0,0,0,0,0.4637,0.4596,0.4416,0.4404,0.4508,0.4366,0.4344,0.431,0.4259,0.425,0.4234,0.423,0.4205,0.4207,0.4209,0.4274,0.422,0.4221,0.4221,0.4435,0.4442,0.4447,0,0,0,0,0,0,0.4643,0.4623,0.4424,0.4498,0.447,0.4363,0.4324,0.4306,0.4275,0.4236,0.4232,0.4225,0.4205,0.4208,0.4268,0.4273,0.4221,0.4222,0.4429,0.4437,0.4445,0.4361,0,0,0,0,0,0,0.4651,0.4626,0.4602,0.45,0.4467,0.4346,0.4324,0.4301,0.4262,0.4256,0.4228,0.4229,0.4205,0.4268,0.4269,0.4273,0.4223,0.4422,0.4433,0.4442,0.4357,0.4365,0.4372,0,0,0,0,0,0.466,0.4599,0.4601,0.4579,0.444,0.4345,0.4323,0.4248,0.4262,0.4228,0.4266,0.423,0.4334,0.4271,0.4272,0.4276,0.4417,0.443,0.4441,0.4354,0.4364,0.4372,0,0,0,0,0,0,0.4649,0.4581,0.4581,0.4493,0.4436,0.4329,0.4268,0.4266,0.4257,0.4262,0.427,0.4274,0.434,0.4356,0.4288,0.4393,0.4382,0.4395,0.4316,0.4325,0.4333,0.4287,0.4223,0,0,0,0,0,0.4653,0.4611,0.4543,0.4473,0.4441,0.4378,0.4332,0.4294,0.4274,0.4265,0.427,0.432,0.4386,0.4393,0.4438,0.4466,0.4493,0.4495,0.4502,0.4507,0.4487,0.4557,0.4565,0.4487,0.4487,0.4487,0,0,0.462,0.4586,0.4552,0.4474,0.4412,0.436,0.4347,0.4266,0.4261,0.4279,0.4284,0.4341,0.4416,0.4455,0.4486,0.4459,0.4556,0.4522,0.4524,0.4501,0.457,0.4576,0.4581,0.4495,0.4494,0.4492,0,0,0.452,0.4512,0.4436,0.4415,0.4346,0.4326,0.4324,0.4252,0.4252,0.4267,0.4329,0.4393,0.4441,0.4488,0.453,0.4623,0.4611,0.4665,0.4617,0.4686,0.4689,0.4692,0.4747,0.4756,0.4642,0.4642,0.4642,0,0.4473,0.4411,0.4395,0.4338,0.4333,0.4331,0.428,0.4274,0.425,0.4283,0.4268,0.4411,0.445,0.4553,0.4578,0.4623,0.4662,0.4545,0.4682,0.4686,0.469,0.4746,0.4756,0.4639,0.4639,0.464,0.464,0,0.4327,0.4308,0.4261,0.423,0.4219,0.4174,0.4194,0.4207,0.4238,0.4248,0.4342,0.4395,0.4481,0.452,0.4553,0.4643,0.4663,0.4687,0.4619,0.469,0.4748,0.476,0.4635,0.4636,0.4637,0.4638,0,0,0.4105,0.4158,0.4136,0.4177,0.4185,0.4164,0.4193,0.4224,0.4265,0.427,0.4325,0.4425,0.4457,0.4515,0.4584,0.4615,0.4676,0.4643,0.4648,0.4627,0.482,0.4624,0.4619,0.4709,0.471,0.4712,0.4846,0,0.3988,0.3973,0.4001,0.4003,0.4018,0.4091,0.413,0.4181,0.423,0.4283,0.4365,0.444,0.4463,0.4503,0.4544,0.467,0.4705,0.4637,0.4816,0.4821,0.4578,0.4625,0.4347,0.4423,0.4858,0.486,0.4861,0,0.3816,0.3863,0.3882,0.401,0.4006,0.4008,0.4127,0.4155,0.4254,0.4288,0.4358,0.4428,0.4529,0.4518,0.4692,0.4648,0.4723,0.4782,0.479,0.4631,0.4645,0.4432,0.4429,0.4308,0.488,0.4878,0.4877,0,0.3752,0.3776,0.3846,0.3878,0.3987,0.4011,0.4058,0.4152,0.4186,0.4298,0.4305,0.4453,0.4498,0.4626,0.472,0.4733,0.4865,0.4919,0.4815,0.4804,0.4611,0.4577,0.4439,0.5019,0.5019,0.5018,0.5018,0,0.3674,0.3703,0.3827,0.3864,0.3904,0.399,0.4023,0.4086,0.4157,0.4189,0.4302,0.4333,0.4516,0.4603,0.4726,0.4768,0.4884,0.4794,0.4814,0.458,0.4543,0.4464,0.4479,0.5023,0.5022,0.5021,0.502,0,0.3602,0.3695,0.3755,0.3865,0.3886,0.3913,0.3962,0.3993,0.4061,0.41,0.4129,0.4254,0.4369,0.4507,0.4707,0.4727,0.4687,0.4818,0.4505,0.448,0.4244,0.4267,0.409,0.4002,0.4756,0.4751,0.4748,0,0.3594,0.3627,0.3729,0.3743,0.3778,0.3823,0.3849,0.3935,0.396,0.4042,0.4055,0.4151,0.4212,0.4375,0.4427,0.4558,0.4521,0.4358,0.4317,0.4152,0.42,0.4121,0.4057,0.4073,0.4064,0.4057,0.4051,0,0.3551,0.358,0.3636,0.3664,0.3687,0.369,0.373,0.3738,0.3841,0.3862,0.3913,0.3965,0.4054,0.4024,0.4093,0.4151,0.4103,0.421,0.4139,0.3703,0.3515,0.3463,0.4079,0.3987,0.3994,0.3998,0.4002,0.4004,0.3498,0.3511,0.3572,0.3565,0.3578,0.354,0.3483,0.3538,0.3544,0.3519,0.3704,0.3654,0.3685,0.3732,0.3754,0.3512,0.3683,0.3434,0.3503,0.3457,0.3245,0.3677,0.3531,0.3535,0.3538,0.3541,0.3544,0,0.3439,0.3462,0.3464,0.3449,0.3372,0.3405,0.3384,0.3288,0.3238,0.3278,0.3287,0.3198,0.3097,0.3097,0.2929,0.2836,0.2776,0.2769,0.2625,0.2629,0.3085,0.2919,0.2508,0.2508,0.2508,0.2508,0.2508,0.2508,0.3426,0.3414,0.3404,0.325,0.3196,0.3011,0.2946,0.2853,0.2818,0.2666,0.2562,0.2609,0.267,0.2572,0.2375,0.2322,0.2259,0.2087,0.2246,0.2584,0.2652,0.2717,0.2558,0.2077,0.2077,0.16,0.1596,0.1594]},{"header":{"parameterUnit":"m.s-1","parameterCategory":2,"la1":30.2991,"la2":30.254,"lo1":-89.0895,"lo2":-89.0444,"dy":0.0017,"dx":0.0017,"nx":28,"ny":28,"refTime":"2025-12-10T03:00:00:Z","depth":"0","parameterNumber":3,"parameterNumberName":"V-component_of_CURRENTS"},"data":[0,0,0,0,0,0,0,0,0,0,0,0,0,0,0,0,0,0,0,0,0,0,0,0,0,0,0,0,0,0,0,0,0,0,0,0,0,0,0,0,0,0,0,0,0,0,0,0,0,0,0,0,0,0,0,0,0,0,-0.0946,-0.0944,0,-0.0876,-0.0876,-0.0876,-0.0843,-0.0842,-0.0841,-0.0841,-0.0996,-0.1001,-0.1006,0,0,0,0,0,0,0,0,0,0,0,0,0,-0.1126,-0.1123,-0.0946,-0.0944,-0.0943,-0.0876,-0.0876,-0.0876,-0.0843,-0.0842,-0.0841,-0.084,-0.0995,-0.1,-0.1006,0,0,0,0,0,0,0,0,0,0,0,0,0,-0.106,-0.1122,-0.0946,-0.0911,-0.0907,-0.0876,-0.0876,-0.0876,-0.0843,-0.0842,-0.0841,-0.084,-0.0993,-0.1,-0.1007,-0.1077,0,0,-0.1029,-0.1033,0,0,0,0,0,0,0,0,-0.1063,-0.1054,-0.0918,-0.0914,-0.0908,-0.0859,-0.0995,-0.0951,-0.0844,-0.0878,-0.0841,-0.0839,-0.0966,-0.0975,-0.0975,-0.1084,-0.1091,-0.103,-0.1035,-0.1038,-0.104,0,0,0,0,0,0,0,-0.1068,-0.1057,-0.0928,-0.0916,-0.091,-0.0924,-0.0914,-0.0987,-0.0941,-0.0874,-0.087,-0.0847,-0.0966,-0.0968,-0.0979,-0.1093,-0.103,-0.1036,-0.1041,-0.1044,-0.1294,-0.1296,0,0,0,0,0,0,-0.1055,-0.1061,-0.093,-0.0925,-0.0974,-0.0921,-0.091,-0.0884,-0.0935,-0.0937,-0.0848,-0.0846,-0.0956,-0.097,-0.0985,-0.1045,-0.1038,-0.1045,-0.1049,-0.1291,-0.1294,-0.1296,0,0,0,0,0,0,-0.1059,-0.1044,-0.0933,-0.0985,-0.097,-0.0917,-0.0889,-0.0883,-0.0885,-0.0911,-0.0919,-0.0856,-0.0956,-0.0974,-0.1061,-0.1052,-0.1048,-0.1055,-0.1289,-0.1292,-0.1295,-0.1185,0,0,0,0,0,0,-0.1064,-0.1046,-0.1031,-0.0983,-0.0966,-0.0919,-0.0889,-0.0882,-0.0868,-0.0865,-0.0921,-0.0933,-0.0956,-0.105,-0.1068,-0.1062,-0.106,-0.1286,-0.129,-0.1294,-0.1185,-0.1184,-0.1182,0,0,0,0,0,-0.1071,-0.1032,-0.1031,-0.1015,-0.0945,-0.0918,-0.0913,-0.0878,-0.087,-0.0877,-0.0921,-0.0931,-0.1089,-0.1058,-0.1079,-0.1075,-0.1284,-0.1289,-0.1294,-0.1186,-0.1184,-0.1182,0,0,0,0,0,0,-0.1097,-0.1023,-0.1021,-0.0962,-0.0951,-0.0909,-0.0887,-0.0889,-0.0924,-0.0923,-0.0967,-0.0984,-0.105,-0.1105,-0.1069,-0.1168,-0.1187,-0.1197,-0.1098,-0.1097,-0.1096,-0.1021,-0.1066,0,0,0,0,0,-0.1099,-0.1052,-0.1014,-0.0974,-0.0959,-0.0939,-0.0924,-0.0911,-0.0923,-0.0934,-0.0982,-0.1041,-0.109,-0.1125,-0.1186,-0.1254,-0.1223,-0.127,-0.1268,-0.1266,-0.1226,-0.1197,-0.1185,-0.1313,-0.1313,-0.1313,0,0,-0.1081,-0.1049,-0.1013,-0.0978,-0.0956,-0.0945,-0.0929,-0.0902,-0.0905,-0.0954,-0.0996,-0.1044,-0.1112,-0.1163,-0.1199,-0.1204,-0.1212,-0.1272,-0.1268,-0.1229,-0.12,-0.1186,-0.1174,-0.1316,-0.1316,-0.1315,0,0,-0.1043,-0.1014,-0.0971,-0.0971,-0.0946,-0.0941,-0.0941,-0.0929,-0.0931,-0.0986,-0.1007,-0.1042,-0.1159,-0.1163,-0.1188,-0.123,-0.1206,-0.1277,-0.1199,-0.1172,-0.1158,-0.1146,-0.1055,-0.1036,-0.1272,-0.1272,-0.1272,0,-0.1016,-0.0984,-0.0962,-0.095,-0.0931,-0.0945,-0.0921,-0.0938,-0.0968,-0.0957,-0.0997,-0.1073,-0.1139,-0.1136,-0.1145,-0.1214,-0.1179,-0.1185,-0.1158,-0.1146,-0.1135,-0.1046,-0.1026,-0.1267,-0.1268,-0.1268,-0.1269,0,-0.0975,-0.0955,-0.0931,-0.0919,-0.0912,-0.0893,-0.0903,-0.0919,-0.0939,-0.0942,-0.0958,-0.1026,-0.105,-0.1091,-0.1131,-0.1092,-0.1082,-0.115,-0.1134,-0.1113,-0.1024,-0.1004,-0.1261,-0.1262,-0.1264,-0.1265,0,0,-0.084,-0.0886,-0.087,-0.0882,-0.089,-0.0876,-0.0879,-0.0861,-0.0828,-0.0889,-0.0834,-0.0919,-0.0919,-0.0949,-0.0994,-0.0975,-0.0872,-0.1023,-0.1024,-0.0878,-0.0751,-0.0728,-0.0705,-0.0932,-0.0929,-0.0927,-0.0702,0,-0.0795,-0.08,-0.0814,-0.0805,-0.0803,-0.0815,-0.0808,-0.0803,-0.0805,-0.0777,-0.0799,-0.0794,-0.0878,-0.0867,-0.0861,-0.087,-0.0823,-0.0922,-0.084,-0.0835,-0.0774,-0.0684,-0.0678,-0.0478,-0.0683,-0.068,-0.0678,0,-0.0716,-0.0746,-0.0739,-0.0756,-0.0742,-0.0744,-0.0693,-0.0692,-0.0655,-0.0639,-0.0613,-0.0635,-0.0594,-0.0693,-0.0631,-0.0688,-0.07,-0.071,-0.0704,-0.07,-0.0777,-0.0548,-0.0435,-0.0515,-0.0648,-0.065,-0.0652,0,-0.0634,-0.0661,-0.0665,-0.0676,-0.0707,-0.0683,-0.0684,-0.0644,-0.0603,-0.0537,-0.0475,-0.0453,-0.0415,-0.043,-0.0456,-0.0534,-0.0372,-0.0493,-0.0464,-0.046,-0.0445,-0.0446,-0.0352,-0.0435,-0.0436,-0.0436,-0.0437,0,-0.0556,-0.0549,-0.0643,-0.0642,-0.0617,-0.0644,-0.0572,-0.0549,-0.0486,-0.039,-0.0401,-0.03,-0.0354,-0.0289,-0.0347,-0.0297,-0.0279,-0.0386,-0.0393,-0.0409,-0.0409,-0.0476,-0.0564,-0.0428,-0.043,-0.0431,-0.0433,0,-0.0441,-0.0509,-0.0511,-0.0564,-0.0579,-0.0552,-0.0527,-0.0459,-0.0409,-0.0272,-0.0237,-0.0151,-0.0043,-0.0068,-0.0044,-0.0129,-0.0136,-0.0114,-0.009,-0.0099,-0.0199,-0.0283,-0.0156,-0.0172,-0.003,-0.0028,-0.0026,0,-0.0393,-0.0394,-0.0444,-0.0433,-0.0455,-0.0449,-0.0413,-0.0409,-0.0326,-0.0165,-0.007,0.0061,0.0198,0.028,0.0175,0.0166,0.0012,0.0111,-0.007,-0.0136,-0.0235,-0.0293,-0.0322,0.0017,0.0019,0.002,0.0022,0,-0.0298,-0.0308,-0.0313,-0.0298,-0.0285,-0.0251,-0.0217,-0.0158,-0.0093,0.0043,0.0251,0.0369,0.0433,0.0452,0.04,0.0327,0.0053,0.014,0.0056,-0.0173,-0.0212,-0.0255,-0.0163,0.0035,0.0034,0.0033,0.0032,0.0032,-0.0209,-0.0186,-0.0185,-0.0144,-0.0109,-0.002,0.0045,0.0116,0.0268,0.0487,0.0518,0.074,0.0644,0.0587,0.0474,0.0227,0.018,0.0099,0.0022,-0.0015,-0.0091,0.0068,0.0239,0.0238,0.0238,0.0238,0.0238,0,-0.0128,-0.0093,-0.0036,0.003,0.0149,0.0116,0.0218,0.031,0.0525,0.0704,0.0888,0.0985,0.0875,0.0659,0.032,0.0132,0.0031,0.0022,-0.0084,-0.0099,0.0049,-0.0017,0.0123,0.0123,0.0123,0.0124,0.0124,0.0124,-0.0087,-0.001,0.0028,0.0246,0.0325,0.0459,0.0535,0.0668,0.0794,0.1055,0.1195,0.1276,0.1127,0.0488,0.0077,-0.0027,-0.0179,-0.019,-0.0247,-0.0209,-0.021,-0.0211,-0.0292,-0.0211,-0.0212,-0.0367,-0.0369,-0.0371]}],[{"header":{"parameterUnit":"m.s-1","parameterCategory":2,"la1":30.2991,"la2":30.254,"lo1":-89.0895,"lo2":-89.0444,"dy":0.0017,"dx":0.0017,"nx":28,"ny":28,"refTime":"2025-12-10T03:00:00:Z","depth":"2","parameterNumber":2,"parameterNumberName":"U-component_of_CURRENTS"},"data":[0,0,0,0,0,0,0,0,0,0,0,0,0,0,0,0,0,0,0,0,0,0,0,0,0,0,0,0,0,0,0,0,0,0,0,0,0,0,0,0,0,0,0,0,0,0,0,0,0,0,0,0,0,0,0,0,0,0,0.209,0.2088,0,0.2013,0.2013,0.2013,0.2307,0.2314,0.2322,0.233,0.2085,0.2072,0.2058,0,0,0,0,0,0,0,0,0,0,0,0,0,0.1981,0.1985,0.209,0.2088,0.2087,0.2013,0.2013,0.2013,0.2305,0.2315,0.2324,0.2334,0.209,0.2073,0.2056,0,0,0,0,0,0,0,0,0,0,0,0,0,0.1988,0.1987,0.209,0.2217,0.2227,0.2013,0.2013,0.2013,0.2303,0.2315,0.2327,0.2338,0.2095,0.2075,0.2054,0.1687,0,0,0.199,0.1981,0,0,0,0,0,0,0,0,0.1988,0.1993,0.22,0.2208,0.2219,0.2174,0.1884,0.1892,0.23,0.2283,0.233,0.2344,0.2084,0.2065,0.2039,0.1676,0.1665,0.1989,0.1976,0.1967,0.1961,0,0,0,0,0,0,0,0.1988,0.1994,0.2069,0.2197,0.2208,0.2102,0.2123,0.1886,0.2121,0.2286,0.2305,0.2278,0.2092,0.2059,0.2035,0.1661,0.1989,0.1971,0.1958,0.195,0.1729,0.1735,0,0,0,0,0,0,0.1993,0.1996,0.2071,0.2065,0.212,0.2096,0.2119,0.2183,0.2128,0.213,0.2268,0.2292,0.2089,0.2059,0.2027,0.2056,0.1967,0.1948,0.1936,0.1722,0.173,0.1737,0,0,0,0,0,0,0.1993,0.2004,0.2074,0.2016,0.2018,0.2089,0.2156,0.2175,0.2219,0.2115,0.212,0.2302,0.2097,0.2056,0.2021,0.2032,0.1938,0.1919,0.1714,0.1725,0.1734,0.1812,0,0,0,0,0,0,0.1992,0.2007,0.2036,0.202,0.2021,0.2057,0.2144,0.2165,0.2175,0.2209,0.2138,0.2128,0.2103,0.2054,0.2,0.2002,0.1903,0.1706,0.1719,0.1731,0.1801,0.1823,0.1842,0,0,0,0,0,0.1989,0.2052,0.204,0.2046,0.2071,0.2057,0.2051,0.2139,0.2166,0.2214,0.2236,0.2135,0.2101,0.2038,0.1974,0.197,0.17,0.1715,0.173,0.1791,0.1819,0.1842,0,0,0,0,0,0,0.2046,0.2083,0.2075,0.2152,0.2127,0.2108,0.2121,0.2119,0.2151,0.2201,0.2122,0.2111,0.2105,0.2032,0.1967,0.1981,0.1911,0.1914,0.1982,0.2005,0.2025,0.205,0.1885,0,0,0,0,0,0.2039,0.2104,0.2083,0.2133,0.2121,0.2086,0.2072,0.2132,0.214,0.2173,0.2126,0.2115,0.2082,0.2054,0.2012,0.1899,0.1924,0.1907,0.1927,0.1944,0.1945,0.2049,0.2077,0.1787,0.1786,0.1786,0,0,0.2035,0.2085,0.2099,0.2141,0.2118,0.2092,0.2121,0.2147,0.2155,0.2106,0.2131,0.213,0.2079,0.2086,0.2074,0.2034,0.2057,0.1963,0.1975,0.1967,0.2067,0.2094,0.2119,0.1797,0.1795,0.1793,0,0,0.2054,0.2132,0.2152,0.2138,0.2134,0.2132,0.2136,0.2134,0.2197,0.2164,0.2209,0.2261,0.212,0.2178,0.2154,0.2227,0.2161,0.2222,0.2299,0.2402,0.2424,0.2443,0.2553,0.2582,0.2231,0.2232,0.2232,0,0.207,0.2105,0.2143,0.214,0.2137,0.2146,0.2137,0.214,0.2149,0.2193,0.223,0.2231,0.2177,0.2208,0.2316,0.2254,0.232,0.2177,0.2419,0.2439,0.2458,0.2566,0.2596,0.2237,0.2237,0.2236,0.2236,0,0.2039,0.2075,0.2093,0.2111,0.2111,0.2136,0.2131,0.2179,0.2221,0.2237,0.2322,0.233,0.237,0.2369,0.2334,0.2452,0.2462,0.2421,0.2327,0.249,0.2596,0.2626,0.2245,0.2243,0.2242,0.224,0,0,0.2076,0.2087,0.2088,0.2114,0.2127,0.2157,0.2169,0.2222,0.2288,0.2327,0.2416,0.2433,0.2499,0.2491,0.2491,0.2573,0.2764,0.2564,0.2567,0.2624,0.3023,0.2775,0.2784,0.2766,0.2771,0.2775,0.3057,0,0.2052,0.2092,0.2088,0.2114,0.213,0.2173,0.2196,0.2255,0.2325,0.242,0.2478,0.2547,0.2519,0.258,0.2663,0.2719,0.2843,0.2693,0.29,0.2907,0.2623,0.2809,0.2574,0.2782,0.3085,0.309,0.3094,0,0.2017,0.2056,0.2093,0.2196,0.2209,0.2231,0.2375,0.2394,0.2494,0.2556,0.2652,0.2688,0.2801,0.277,0.2975,0.2887,0.2987,0.3037,0.3048,0.2796,0.2712,0.2669,0.2824,0.3143,0.3139,0.3136,0.3132,0,0.2056,0.2099,0.2177,0.2183,0.2244,0.2314,0.2374,0.2461,0.2508,0.2655,0.2712,0.2857,0.2922,0.307,0.3139,0.3102,0.336,0.3318,0.321,0.3195,0.302,0.2977,0.3525,0.3525,0.3524,0.3524,0.3523,0,0.2082,0.2138,0.2219,0.2234,0.2336,0.2383,0.25,0.2569,0.266,0.2745,0.2798,0.2892,0.3003,0.3121,0.3225,0.3282,0.3445,0.3256,0.3253,0.3045,0.3004,0.3312,0.3284,0.3534,0.3532,0.353,0.3528,0,0.2094,0.2154,0.222,0.2306,0.2344,0.2419,0.2512,0.2596,0.2677,0.2786,0.2829,0.2941,0.3076,0.3156,0.3381,0.3339,0.3455,0.3454,0.3184,0.3137,0.3226,0.32,0.3395,0.3388,0.3383,0.3378,0.3375,0,0.2121,0.214,0.2233,0.2284,0.2325,0.2426,0.2487,0.2584,0.2658,0.2827,0.2888,0.3007,0.3053,0.3196,0.3189,0.3282,0.3402,0.31,0.2943,0.3237,0.3216,0.3198,0.318,0.2815,0.2807,0.28,0.2795,0,0.2093,0.2131,0.2185,0.2278,0.2366,0.2428,0.2541,0.2548,0.2694,0.2746,0.2883,0.2923,0.2993,0.2886,0.2878,0.2926,0.3034,0.2956,0.342,0.28,0.2688,0.2666,0.267,0.2736,0.2742,0.2746,0.2749,0.2752,0.2087,0.2116,0.221,0.2301,0.2384,0.244,0.241,0.2511,0.2546,0.2549,0.2736,0.2657,0.2678,0.2454,0.2458,0.2458,0.2661,0.2588,0.2612,0.2642,0.244,0.2315,0.2261,0.2264,0.2267,0.2269,0.2271,0,0.2095,0.2161,0.2233,0.2316,0.234,0.2424,0.2453,0.2342,0.229,0.2342,0.2344,0.2083,0.1973,0.2036,0.1924,0.1919,0.196,0.1876,0.1931,0.199,0.2042,0.1811,0.1467,0.1464,0.1461,0.1459,0,0,0.2111,0.2163,0.2193,0.225,0.2296,0.2233,0.2185,0.2036,0.1981,0.1795,0.1715,0.1763,0.1884,0.1577,0.1593,0.1511,0.1735,0.1462,0.2111,0.223,0.2278,0.2459,0.2168,0,0,0,0,0]},{"header":{"parameterUnit":"m.s-1","parameterCategory":2,"la1":30.2991,"la2":30.254,"lo1":-89.0895,"lo2":-89.0444,"dy":0.0017,"dx":0.0017,"nx":28,"ny":28,"refTime":"2025-12-10T03:00:00:Z","depth":"2","parameterNumber":3,"parameterNumberName":"V-component_of_CURRENTS"},"data":[0,0,0,0,0,0,0,0,0,0,0,0,0,0,0,0,0,0,0,0,0,0,0,0,0,0,0,0,0,0,0,0,0,0,0,0,0,0,0,0,0,0,0,0,0,0,0,0,0,0,0,0,0,0,0,0,0,0,0.0301,0.0302,0,0.0239,0.0237,0.0235,0.0025,0.0021,0.0018,0.0015,0.0014,0.0017,0.002,0,0,0,0,0,0,0,0,0,0,0,0,0,0.0398,0.0395,0.0301,0.0302,0.0302,0.024,0.0237,0.0235,0.0025,0.0021,0.0017,0.0014,0.0013,0.0017,0.002,0,0,0,0,0,0,0,0,0,0,0,0,0,0.0332,0.0393,0.0301,0.0202,0.0194,0.024,0.0237,0.0234,0.0026,0.0021,0.0016,0.0012,0.0012,0.0016,0.0021,0.0145,0,0,0.0034,0.0036,0,0,0,0,0,0,0,0,0.0335,0.0326,0.0216,0.021,0.0201,0.0149,0.0272,0.0213,0.0027,0.0072,0.0015,0.001,0.008,0.0078,0.0053,0.0145,0.0145,0.0035,0.0037,0.0039,0.0041,0,0,0,0,0,0,0,0.034,0.0329,0.0259,0.0218,0.0209,0.0218,0.02,0.0259,0.0092,0.0068,0.0057,0.0078,0.0072,0.0049,0.0052,0.0145,0.0035,0.0039,0.0041,0.0043,0.0186,0.0187,0,0,0,0,0,0,0.0378,0.0332,0.0262,0.0259,0.0276,0.0221,0.02,0.0157,0.009,0.0079,0.0082,0.0069,0.0043,0.0047,0.0051,0.0084,0.0039,0.0044,0.0046,0.0185,0.0187,0.0188,0,0,0,0,0,0,0.0379,0.0369,0.0265,0.0312,0.0301,0.0225,0.0178,0.0159,0.01,0.0103,0.0088,0.0041,0.004,0.0045,0.0044,0.0087,0.0046,0.005,0.0184,0.0186,0.0187,0.0223,0,0,0,0,0,0,0.0381,0.0368,0.0345,0.0312,0.03,0.0233,0.0184,0.0162,0.0131,0.011,0.0066,0.0061,0.0036,0.0037,0.0049,0.0092,0.0053,0.0182,0.0185,0.0187,0.0221,0.0226,0.0231,0,0,0,0,0,0.0383,0.0359,0.0342,0.0335,0.0269,0.0234,0.0223,0.0147,0.0134,0.008,0.006,0.006,0.0059,0.0042,0.0055,0.0101,0.0181,0.0184,0.0187,0.0218,0.0225,0.0231,0,0,0,0,0,0,0.0382,0.0337,0.0316,0.0275,0.0241,0.0202,0.0185,0.0157,0.0101,0.0083,0.0077,0.0071,0.0092,0.0096,0.0077,0.0146,0.0124,0.0129,0.0144,0.015,0.0155,0.0195,0.0057,0,0,0,0,0,0.0387,0.0334,0.0314,0.0272,0.0274,0.024,0.0225,0.0164,0.0134,0.0099,0.0076,0.0081,0.0127,0.0128,0.0141,0.0194,0.0193,0.0231,0.0236,0.024,0.028,0.0303,0.0314,0.0196,0.0196,0.0196,0,0,0.0399,0.035,0.0335,0.027,0.0251,0.0249,0.0208,0.0166,0.0163,0.0126,0.01,0.0101,0.0144,0.0168,0.0182,0.0168,0.0262,0.0243,0.0246,0.0286,0.0307,0.0319,0.0329,0.0198,0.0198,0.0197,0,0,0.0391,0.0339,0.0312,0.028,0.024,0.023,0.0225,0.0173,0.0142,0.0134,0.0129,0.0156,0.017,0.0216,0.0256,0.0319,0.0291,0.0305,0.0366,0.0387,0.0397,0.0406,0.0371,0.0377,0.0304,0.0304,0.0304,0,0.0386,0.035,0.0302,0.0268,0.0271,0.0235,0.0236,0.0225,0.0163,0.0197,0.0113,0.0213,0.0219,0.0362,0.0343,0.0341,0.0303,0.0337,0.0394,0.0403,0.0412,0.0375,0.0381,0.0306,0.0306,0.0306,0.0305,0,0.0374,0.0346,0.0335,0.0285,0.0275,0.0253,0.0263,0.0251,0.0236,0.024,0.0314,0.0309,0.0375,0.0381,0.0375,0.0475,0.0408,0.0397,0.0378,0.0426,0.0382,0.0388,0.0309,0.0308,0.0308,0.0307,0,0,0.0352,0.0329,0.0324,0.0323,0.0277,0.0271,0.0317,0.037,0.0439,0.0386,0.0493,0.0538,0.0527,0.0574,0.058,0.0589,0.0586,0.0498,0.0498,0.0463,0.0564,0.0492,0.049,0.0552,0.0554,0.0556,0.0489,0,0.0354,0.034,0.0317,0.0329,0.0353,0.0343,0.0394,0.0429,0.0467,0.0545,0.0613,0.0679,0.0612,0.063,0.0643,0.0629,0.0609,0.0602,0.0526,0.0524,0.0456,0.05,0.0484,0.0421,0.0495,0.0496,0.0496,0,0.0352,0.0352,0.0382,0.0394,0.0404,0.039,0.0497,0.0522,0.0657,0.0688,0.0783,0.0817,0.0902,0.0796,0.0796,0.0772,0.0668,0.0621,0.0617,0.0559,0.0467,0.0396,0.0429,0.0506,0.0505,0.0504,0.0504,0,0.0414,0.0389,0.0428,0.042,0.0444,0.0456,0.0456,0.0562,0.0621,0.0776,0.0827,0.0947,0.097,0.0924,0.0819,0.0788,0.0771,0.0728,0.057,0.0561,0.0547,0.0534,0.07,0.07,0.07,0.07,0.07,0,0.0443,0.0459,0.0442,0.0471,0.0498,0.0475,0.0539,0.0588,0.0687,0.0779,0.0872,0.0963,0.0983,0.0985,0.0877,0.0748,0.081,0.0606,0.0563,0.0551,0.0539,0.0626,0.0619,0.0697,0.0698,0.0699,0.0699,0,0.0518,0.051,0.0545,0.0555,0.0533,0.0544,0.0519,0.0588,0.0651,0.0782,0.0822,0.0962,0.0968,0.0961,0.0902,0.0793,0.0704,0.0618,0.0578,0.0533,0.0455,0.045,0.0469,0.0467,0.0464,0.0463,0.0461,0,0.0547,0.0592,0.0605,0.0596,0.0575,0.0561,0.0566,0.0584,0.066,0.0769,0.0853,0.0909,0.1004,0.0919,0.0782,0.0641,0.0632,0.0473,0.0444,0.0488,0.0443,0.0441,0.0439,0.041,0.0408,0.0407,0.0406,0,0.063,0.0642,0.0689,0.0663,0.0633,0.0643,0.063,0.0706,0.0759,0.0869,0.1,0.107,0.0973,0.0894,0.0682,0.0565,0.0521,0.0432,0.0534,0.0468,0.0427,0.0384,0.0385,0.0392,0.0394,0.0395,0.0395,0.0396,0.0676,0.0712,0.0738,0.0708,0.0705,0.0739,0.0777,0.0818,0.0947,0.1092,0.1115,0.1169,0.1012,0.0773,0.0579,0.0359,0.0384,0.0299,0.0306,0.0315,0.0318,0.0275,0.0209,0.021,0.021,0.021,0.021,0,0.0703,0.0739,0.0744,0.0769,0.0808,0.0751,0.0841,0.091,0.1087,0.1147,0.1244,0.1093,0.0956,0.0746,0.0393,0.02,0.0207,0.0142,0.0201,0.0215,0.0227,0.0229,0.0094,0.0093,0.0093,0.0092,0,0,0.0724,0.0771,0.0781,0.0849,0.0861,0.0904,0.0974,0.1074,0.1132,0.124,0.1229,0.1235,0.0981,0.0714,0.0472,0.027,0.0282,0.0227,0.0337,0.0447,0.0461,0.033,0.0349,0,0,0,0,0]}],[{"header":{"parameterUnit":"m.s-1","parameterCategory":2,"la1":30.2991,"la2":30.254,"lo1":-89.0895,"lo2":-89.0444,"dy":0.0017,"dx":0.0017,"nx":28,"ny":28,"refTime":"2025-12-10T03:00:00:Z","depth":"4","parameterNumber":2,"parameterNumberName":"U-component_of_CURRENTS"},"data":[0,0,0,0,0,0,0,0,0,0,0,0,0,0,0,0,0,0,0,0,0,0,0,0,0,0,0,0,0,0,0,0,0,0,0,0,0,0,0,0,0,0,0,0,0,0,0,0,0,0,0,0,0,0,0,0,0,0,-0.0013,-0.0013,0,-0.007,-0.0072,-0.0074,-0.0102,-0.0101,-0.01,-0.0099,-0.004,-0.004,-0.004,0,0,0,0,0,0,0,0,0,0,0,0,0,-0.0131,-0.0129,-0.0013,-0.0012,-0.0012,-0.007,-0.0072,-0.0074,-0.0103,-0.0101,-0.01,-0.0098,-0.0041,-0.004,-0.004,0,0,0,0,0,0,0,0,0,0,0,0,0,-0.0137,-0.0128,-0.0013,-0.0022,-0.0023,-0.007,-0.0072,-0.0075,-0.0103,-0.0101,-0.0099,-0.0097,-0.0041,-0.004,-0.004,-0.0076,0,0,-0.0038,-0.0038,0,0,0,0,0,0,0,0,-0.0136,-0.0134,-0.0022,-0.0022,-0.0022,-0.0065,-0.0092,-0.0065,-0.0104,-0.0088,-0.0099,-0.0096,-0.003,-0.003,-0.0068,-0.0073,-0.0071,-0.0038,-0.0038,-0.0038,-0.0038,0,0,0,0,0,0,0,-0.0136,-0.0133,-0.005,-0.0021,-0.0021,-0.0092,-0.0091,-0.009,-0.0078,-0.0089,-0.0088,-0.0072,-0.0031,-0.0068,-0.0066,-0.007,-0.0038,-0.0038,-0.0037,-0.0037,0.0038,0.0039,0,0,0,0,0,0,-0.009,-0.0131,-0.0048,-0.0051,-0.0059,-0.009,-0.0089,-0.0065,-0.0081,-0.0078,-0.0073,-0.0073,-0.007,-0.0066,-0.0063,0.0061,-0.0038,-0.0037,-0.0037,0.0036,0.0038,0.004,0,0,0,0,0,0,-0.0093,-0.0082,-0.0046,-0.0082,-0.008,-0.0087,-0.0062,-0.0066,-0.0078,-0.0067,-0.0065,-0.0074,-0.0068,-0.0064,-0.003,0.0058,-0.0037,-0.0037,0.0034,0.0037,0.0039,0.0204,0,0,0,0,0,0,-0.0096,-0.0083,-0.0077,-0.0078,-0.0075,-0.0065,-0.0062,-0.0069,-0.0066,-0.0065,-0.0068,-0.0062,-0.0066,-0.003,-0.0029,0.0057,-0.0036,0.0032,0.0035,0.0038,0.0197,0.0212,0.0226,0,0,0,0,0,-0.01,-0.0071,-0.0076,-0.0067,-0.0057,-0.0064,-0.0073,-0.0082,-0.0067,-0.0085,-0.0061,-0.0061,-0.0008,-0.0029,-0.0028,0.0061,0.003,0.0034,0.0038,0.019,0.0209,0.0225,0,0,0,0,0,0,-0.0116,-0.0071,-0.0076,-0.0035,-0.005,-0.0063,-0.0059,-0.0072,-0.0078,-0.0052,-0.0053,-0.0047,0.0017,-0.0002,-0.0025,0.0086,0.0016,0.0021,0.0132,0.015,0.0164,0.0195,-0.0036,0,0,0,0,0,-0.0116,-0.0072,-0.0072,-0.0036,-0.0034,-0.0051,-0.0058,-0.0061,-0.005,-0.0053,-0.0041,-0.0015,0.0023,0.0055,0.006,0.0114,0.0061,0.0172,0.0186,0.0199,0.0222,0.02,0.0215,0.0052,0.0052,0.0052,0,0,-0.0098,-0.0072,-0.0045,-0.0037,-0.0038,-0.0035,-0.0052,-0.0035,-0.0016,-0.004,0.0005,0.0025,0.0041,0.0111,0.0141,0.0118,0.0212,0.0204,0.0215,0.0232,0.0206,0.0221,0.0236,0.0055,0.0055,0.0054,0,0,-0.0053,-0.0029,0.0003,-0.0,0.001,-0.0004,0.0009,0.0006,0.0019,0.0048,0.0067,0.013,0.0158,0.0206,0.0233,0.032,0.0275,0.0343,0.0467,0.0445,0.0459,0.047,0.0401,0.0405,0.0368,0.0368,0.0369,0,-0.0041,-0.0008,0.0004,0.0022,0.004,0.0021,0.0041,0.0043,0.0055,0.0109,0.0087,0.0196,0.0204,0.0334,0.0388,0.0359,0.0325,0.0409,0.0467,0.0477,0.0486,0.0412,0.0414,0.0377,0.0376,0.0375,0.0374,0,-0.0009,0.0027,0.0057,0.0079,0.009,0.0111,0.0129,0.0158,0.0185,0.0211,0.0326,0.0335,0.0417,0.0443,0.0456,0.0569,0.0514,0.0474,0.0429,0.0513,0.0428,0.0428,0.0389,0.0386,0.0383,0.0381,0,0,0.0032,0.0064,0.0074,0.0104,0.0125,0.0148,0.0216,0.0274,0.0351,0.0385,0.048,0.0586,0.0625,0.0657,0.0684,0.0698,0.0728,0.0652,0.0646,0.0594,0.0664,0.0757,0.0763,0.0717,0.0718,0.0719,0.0571,0,0.0049,0.0069,0.0096,0.0163,0.0193,0.0235,0.0297,0.0372,0.0429,0.0508,0.0585,0.0665,0.0697,0.0753,0.079,0.0735,0.074,0.077,0.0581,0.0575,0.0658,0.0772,0.0724,0.057,0.057,0.057,0.0569,0,0.006,0.0092,0.0123,0.0231,0.0251,0.0303,0.0434,0.0484,0.0611,0.0672,0.08,0.0816,0.0913,0.0867,0.0863,0.0891,0.0816,0.0748,0.0739,0.0777,0.0671,0.0471,0.0567,0.0567,0.0567,0.0567,0.0568,0,0.0062,0.0126,0.0149,0.0177,0.0277,0.0366,0.0433,0.0568,0.0629,0.0783,0.083,0.094,0.0956,0.0924,0.0866,0.0856,0.0788,0.0718,0.0718,0.0718,0.0595,0.0585,0.0685,0.0685,0.0685,0.0686,0.0686,0,0.0064,0.0115,0.0167,0.0212,0.0295,0.0399,0.0524,0.0617,0.0742,0.0825,0.0929,0.0984,0.0974,0.0946,0.0878,0.0841,0.0797,0.0775,0.0722,0.0662,0.0661,0.0592,0.0583,0.068,0.0681,0.0683,0.0684,0,0.0063,0.0073,0.014,0.0259,0.03,0.0377,0.0529,0.0608,0.0758,0.0852,0.0893,0.099,0.1022,0.0988,0.0891,0.0849,0.0778,0.0755,0.0696,0.0632,0.0692,0.0693,0.0719,0.0722,0.0725,0.0727,0.0728,0,0.0041,0.0071,0.0149,0.0172,0.0239,0.0361,0.0428,0.0595,0.0676,0.0856,0.0877,0.0963,0.1028,0.0965,0.095,0.0861,0.0846,0.0755,0.0764,0.0769,0.0712,0.0709,0.0707,0.0732,0.0733,0.0734,0.0734,0,0.0047,0.0062,0.0102,0.0136,0.0207,0.0277,0.0413,0.046,0.0652,0.0752,0.0882,0.0939,0.0989,0.0991,0.097,0.0888,0.0798,0.0779,0.0771,0.0779,0.0784,0.0725,0.072,0.0743,0.0741,0.0741,0.074,0,0.0033,0.0031,0.0061,0.0097,0.0151,0.0221,0.0294,0.0431,0.0532,0.0746,0.0772,0.0907,0.0983,0.1004,0.0967,0.0959,0.0919,0.0817,0.0807,0.0797,0.0911,0.0934,0.0931,0,0,0,0,0,0.0014,0.0007,0.0024,0.0072,0.0122,0.0178,0.0286,0.0368,0.0529,0.0606,0.0716,0.0795,0.0885,0.0931,0.0936,0.097,0.0884,0.0965,0.075,0.0789,0.078,0.0918,0,0,0,0,0,0,-0.0004,-0.0,0.0007,0.0052,0.0093,0.0172,0.0246,0.0345,0.0421,0.0574,0.0627,0.0744,0.0826,0.0889,0.0924,0.0935,0.078,0.1042,0.1039,0.0795,0.0786,0.0778,0.0917,0,0,0,0,0]},{"header":{"parameterUnit":"m.s-1","parameterCategory":2,"la1":30.2991,"la2":30.254,"lo1":-89.0895,"lo2":-89.0444,"dy":0.0017,"dx":0.0017,"nx":28,"ny":28,"refTime":"2025-12-10T03:00:00:Z","depth":"4","parameterNumber":3,"parameterNumberName":"V-component_of_CURRENTS"},"data":[0,0,0,0,0,0,0,0,0,0,0,0,0,0,0,0,0,0,0,0,0,0,0,0,0,0,0,0,0,0,0,0,0,0,0,0,0,0,0,0,0,0,0,0,0,0,0,0,0,0,0,0,0,0,0,0,0,0,0.0711,0.0711,0,0.0688,0.0687,0.0687,0.078,0.0782,0.0785,0.0788,0.0746,0.0742,0.0739,0,0,0,0,0,0,0,0,0,0,0,0,0,0.0674,0.0675,0.0711,0.0711,0.071,0.0688,0.0687,0.0687,0.0779,0.0782,0.0786,0.0789,0.0747,0.0743,0.0738,0,0,0,0,0,0,0,0,0,0,0,0,0,0.0675,0.0676,0.0711,0.0754,0.0757,0.0688,0.0687,0.0687,0.0778,0.0783,0.0787,0.0791,0.0749,0.0743,0.0738,0.0621,0,0,0.0721,0.0719,0,0,0,0,0,0,0,0,0.0675,0.0676,0.0748,0.0751,0.0755,0.0741,0.0659,0.0664,0.0777,0.077,0.0788,0.0793,0.0739,0.0735,0.0722,0.062,0.0618,0.0721,0.0717,0.0715,0.0713,0,0,0,0,0,0,0,0.0675,0.0676,0.0702,0.0747,0.0751,0.0719,0.0725,0.066,0.0732,0.0771,0.0778,0.0774,0.0742,0.0727,0.0721,0.0617,0.0721,0.0716,0.0712,0.071,0.055,0.0549,0,0,0,0,0,0,0.0682,0.0677,0.0702,0.0701,0.0724,0.0717,0.0723,0.0741,0.0733,0.0736,0.0771,0.0778,0.0734,0.0728,0.072,0.0688,0.0715,0.071,0.0707,0.0551,0.055,0.0549,0,0,0,0,0,0,0.0681,0.0685,0.0703,0.0687,0.0688,0.0714,0.0732,0.0738,0.078,0.0733,0.0736,0.0813,0.0737,0.0728,0.0696,0.0683,0.0707,0.0702,0.0552,0.0551,0.0549,0.0554,0,0,0,0,0,0,0.0681,0.0685,0.07,0.0688,0.0689,0.0691,0.0728,0.0735,0.0768,0.0779,0.0768,0.0766,0.074,0.0705,0.0691,0.0676,0.0698,0.0553,0.0551,0.055,0.0555,0.0553,0.0551,0,0,0,0,0,0.068,0.07,0.0701,0.0704,0.0709,0.0691,0.0688,0.0719,0.0766,0.0775,0.0769,0.0769,0.0685,0.0698,0.0683,0.0666,0.0554,0.0552,0.055,0.0556,0.0553,0.0551,0,0,0,0,0,0,0.0704,0.071,0.0712,0.0737,0.0721,0.0708,0.0706,0.0738,0.0739,0.0768,0.0742,0.0736,0.0702,0.0679,0.0696,0.0616,0.0623,0.0618,0.0633,0.063,0.0628,0.0633,0.0693,0,0,0,0,0,0.0706,0.0724,0.071,0.0728,0.0713,0.0713,0.0714,0.0748,0.0742,0.0754,0.0725,0.0703,0.0664,0.0652,0.0605,0.055,0.0511,0.0534,0.0532,0.0531,0.0524,0.0407,0.0393,0.0542,0.0542,0.0542,0,0,0.0714,0.0724,0.0731,0.0732,0.0714,0.0692,0.0726,0.0745,0.074,0.0738,0.0707,0.0687,0.0648,0.0595,0.0579,0.0586,0.048,0.0528,0.0527,0.0521,0.0403,0.0388,0.0375,0.054,0.0541,0.0541,0,0,0.0713,0.0743,0.0732,0.0722,0.0717,0.0714,0.0731,0.072,0.0727,0.0692,0.0694,0.0656,0.0597,0.0551,0.0529,0.0478,0.0468,0.0496,0.049,0.0376,0.0363,0.035,0.0333,0.0319,0.05,0.05,0.05,0,0.0733,0.0714,0.0724,0.0703,0.0705,0.0727,0.0717,0.07,0.0688,0.0673,0.0691,0.0591,0.0558,0.049,0.0493,0.0468,0.0452,0.0505,0.0372,0.0359,0.0345,0.033,0.0314,0.05,0.05,0.05,0.05,0,0.0696,0.0688,0.0678,0.0661,0.067,0.0671,0.0657,0.0647,0.0662,0.0645,0.0587,0.0525,0.0486,0.046,0.0468,0.0378,0.0417,0.0379,0.0379,0.0331,0.0319,0.0302,0.05,0.05,0.05,0.05,0,0,0.0724,0.0668,0.0668,0.0669,0.0665,0.0691,0.0646,0.0619,0.0616,0.0564,0.0521,0.0444,0.0455,0.043,0.0419,0.032,0.0231,0.0339,0.0333,0.0326,0.0067,0.0133,0.0122,0.0184,0.0179,0.0176,0.0115,0,0.0688,0.0662,0.0648,0.0649,0.0629,0.0645,0.0608,0.0609,0.0585,0.0532,0.0461,0.043,0.0434,0.0447,0.0343,0.0249,0.0181,0.0256,0.0112,0.0109,0.0172,0.01,0.0163,0.0103,0.0099,0.0096,0.0094,0,0.0641,0.0636,0.0636,0.0648,0.0648,0.07,0.0714,0.0679,0.0596,0.0579,0.0525,0.0471,0.0367,0.0361,0.0168,0.0234,0.0173,0.0083,0.0077,0.0118,0.014,0.0146,0.0063,0.0066,0.0068,0.007,0.0072,0,0.066,0.064,0.067,0.0676,0.0678,0.0742,0.0777,0.0734,0.0701,0.0647,0.0619,0.0484,0.0433,0.0281,0.0149,0.0163,-0.0082,-0.0101,-0.0099,-0.0091,-0.0131,-0.0117,-0.0253,-0.0253,-0.0253,-0.0252,-0.0252,0,0.0624,0.0646,0.0726,0.0747,0.0821,0.0842,0.0906,0.0886,0.0839,0.0794,0.0703,0.063,0.0405,0.0242,0.0129,-0.0018,-0.0089,-0.0112,-0.0132,-0.0116,-0.0101,-0.0139,-0.0125,-0.0255,-0.0254,-0.0254,-0.0253,0,0.0611,0.0635,0.0684,0.0775,0.083,0.0921,0.1023,0.1009,0.1002,0.0933,0.0921,0.0723,0.0539,0.0323,0.0058,-0.002,-0.019,-0.0212,-0.0121,-0.0132,-0.0105,-0.009,-0.0235,-0.0234,-0.0233,-0.0232,-0.0231,0,0.0592,0.0605,0.0745,0.0818,0.0901,0.1037,0.107,0.1101,0.1083,0.0984,0.0923,0.0747,0.0611,0.0299,0.0089,-0.013,-0.0152,-0.0208,-0.0218,-0.0113,-0.0118,-0.0104,-0.0091,-0.0229,-0.0229,-0.0229,-0.0229,0,0.0553,0.0633,0.0693,0.0822,0.0953,0.1035,0.1137,0.1125,0.1096,0.1072,0.0934,0.0771,0.0559,0.0309,0.0153,-0.0012,-0.0179,-0.0199,-0.0202,-0.0212,-0.0108,-0.0111,-0.0099,-0.0225,-0.0226,-0.0226,-0.0226,0,0.0559,0.0615,0.0716,0.0844,0.096,0.1042,0.1085,0.1096,0.1081,0.0983,0.0936,0.0738,0.0605,0.0373,0.0213,0.0068,0.003,-0.0014,-0.0028,-0.0034,0.0038,0.02,0.0143,0,0,0,0,0,0.0542,0.0623,0.0722,0.086,0.0952,0.1035,0.1098,0.1107,0.108,0.0988,0.0981,0.0802,0.0563,0.0434,0.03,0.0222,-0.0003,0.0062,-0.0063,-0.0206,-0.021,-0.0156,0,0,0,0,0,0,0.0555,0.0644,0.0717,0.0852,0.0929,0.1021,0.1069,0.1039,0.1005,0.0962,0.0827,0.0787,0.0538,0.0642,0.03,0.0254,0.0163,-0.0049,-0.0051,-0.0204,-0.0207,-0.0211,-0.0157,0,0,0,0,0]}]]